Location: Angwan Shehu
(11.2514°N, 7.4613°E)
Time: 05:08:56
(UTC+00:00)

ARIANE 5 R/B - Pass Details

Date: 14 November 2019
Orbit: 282 x 32100 km, 2.6° (Epoch: 14 December)

Event Time Altitude Azimuth Distance (km) Brightness Sun altitude
Rises 18:17:58 0° 247° (WSW) 2,588 6.4 -18.4°
Reaches altitude 10° 18:21:21 10° 204° (SSW) 1,134 3.5 -19.2°
Maximum altitude 18:22:06 11° 182° (S) 1,033 2.9 -19.4°
Enters shadow 18:22:07 11° 181° (S) 1,033 2.9 -19.4°
